Location: Bojszowy Nowe
(50.0526°N, 19.0514°E)
Time: 15:08:16
(UTC+00:00)

Daily predictions for brighter satellites

Satellite Brightness Start Highest point End
(mag) Time Altitude Azimuth Time Altitude Azimuth Time Altitude Azimuth
Cosmos 1725 Rocket 4.0 16:38:16 10° S 16:44:21 66° E 16:50:31 10° NNE
STARLINK-40 3.6 16:41:07 10° WSW 16:45:07 72° SSE 16:49:09 10° ENE
H-2A R/B 3.4 16:41:29 10° ESE 16:45:23 21° NE 16:49:18 10° N
Cosmos 1862 3.3 16:42:08 10° S 16:46:05 68° E 16:50:03 10° NNE
STARLINK-44 3.6 16:42:47 10° WSW 16:46:48 74° SSE 16:50:49 10° ENE
STARLINK-37 3.6 16:44:31 10° WSW 16:48:32 78° SSE 16:52:35 10° ENE
CSL-04 Rocket 3.8 16:43:14 10° SE 16:48:35 55° ENE 16:53:55 10° N
YAOGAN 6 3.1 16:45:15 10° S 16:48:43 63° W 16:52:12 10° NNW
STARLINK-48 3.8 16:45:09 10° W 16:49:01 58° N 16:52:52 10° ENE
STARLINK-61 3.5 16:45:42 10° WSW 16:49:37 79° NNW 16:53:33 10° ENE
STARLINK-36 3.6 16:46:05 10° WSW 16:50:05 77° SSE 16:54:07 10° ENE
STARLINK-68 3.6 16:47:54 10° WSW 16:51:56 82° SSE 16:55:59 10° ENE
STARLINK-63 3.6 16:49:28 10° WSW 16:53:29 82° SSE 16:57:31 10° ENE
STARLINK-35 3.5 16:51:02 10° WSW 16:55:03 81° SSE 16:59:05 10° ENE
Cosmos 2061 Rocket 4.2 16:48:57 10° S 16:55:22 85° W 17:01:47 10° N
STARLINK-51 3.5 16:52:41 10° WSW 16:56:43 82° SSE 17:00:45 10° ENE
Cosmos 1346 Rocket 3.8 16:53:32 10° SSE 16:56:48 25° E 17:00:05 10° NE
STARLINK-30 3.5 16:54:20 10° WSW 16:58:22 84° SSE 17:02:25 10° ENE
STARLINK-43 3.6 16:55:21 10° WNW 16:58:59 56° N 17:02:31 11° E
NOSS 3-1 (C) 3.4 16:53:40 10° SSW 16:59:11 75° SE 17:05:41 10° NE
YAOGAN 1 2.5 16:55:04 10° SSE 16:59:22 69° ENE 17:03:41 10° N
Cosmos 44 Rocket 4.2 16:55:48 10° NNW 16:59:59 30° NE 17:04:12 10° E
STARLINK-72 3.5 16:55:59 10° WSW 17:00:00 85° SSE 17:04:02 10° ENE
Cosmos 1864 Rocket 4.5 16:54:35 10° S 17:00:45 86° E 17:06:55 10° N
STARLINK-1023 2.9 16:58:00 10° WSW 17:01:11 76° SSE 17:04:12 11° ENE
STARLINK-50 3.5 16:57:37 10° WSW 17:01:39 86° SSE 17:05:37 10° ENE
Cosmos 2297 Rocket 4.0 16:59:10 10° N 17:02:28 15° NNE 17:05:44 10° ENE
Cosmos 1633 Rocket 3.0 16:58:28 10° S 17:02:46 67° E 17:07:06 10° NNE
STARLINK-59 3.5 16:59:24 10° WSW 17:03:25 90° SSE 17:07:19 11° ENE
Cosmos 2285 Rocket 4.0 16:57:48 10° NNW 17:04:11 68° ENE 17:10:32 10° SSE
STARLINK-56 3.5 17:00:55 10° WSW 17:04:57 89° SSE 17:08:47 11° ENE
STARLINK-1035 4.3 17:01:29 10° SW 17:05:29 41° SE 17:09:09 12° ENE
Tsikada Rocket 4.2 17:00:05 10° N 17:06:29 83° W 17:12:55 10° S
STARLINK-73 3.5 17:02:36 10° WSW 17:06:39 90° NNE 17:10:24 12° ENE
CSL-04 Debris 4.2 17:01:16 10° SSE 17:06:43 76° ENE 17:12:13 10° NNW
SKYMED 2 3.6 17:02:26 10° NNE 17:06:50 89° ESE 17:11:10 10° SSW
STARLINK-38 3.5 17:04:16 10° WSW 17:08:18 88° NNW 17:12:01 12° ENE
STARLINK-1024 4.3 17:04:53 10° SSW 17:08:43 38° SE 17:12:04 13° ENE
STARLINK-65 3.5 17:05:54 10° WSW 17:09:56 87° NNW 17:13:35 13° ENE
ADEOS Rocket 3.8 17:02:40 10° NNE 17:10:14 51° E 17:17:39 10° S
Cosmos 1666 Rocket 3.7 17:05:53 10° S 17:10:22 86° W 17:14:53 10° N
Cosmos 2278 Rocket 4.3 17:06:02 10° W 17:10:25 23° NW 17:14:51 10° NNE
Cosmos 1933 Rocket 4.1 17:07:04 10° SSE 17:11:03 35° E 17:15:02 10° NNE
STARLINK-53 3.6 17:07:37 10° WSW 17:11:40 84° NNW 17:15:14 13° ENE
NOAA 11 4.2 17:06:28 10° SSE 17:11:55 89° ENE 17:17:23 10° NNW
Aureole 2 Rocket 1.6 17:12:24 10° SSW 17:15:02 84° ESE 17:17:45 10° NNE
Cosmos 1943 Rocket 2.1 17:10:01 10° SSW 17:15:35 85° ESE 17:21:10 10° NNE
STARLINK-1027 4.0 17:11:57 10° SW 17:16:04 49° SSE 17:19:24 15° ENE
STARLINK-33 3.4 17:14:43 10° W 17:17:57 57° N 17:20:26 16° ENE
USA 116 3.8 17:14:27 10° NNE 17:18:24 65° ESE 17:22:52 10° S
STARLINK-1032 4.1 17:14:41 10° SW 17:18:37 44° SE 17:21:36 16° E
Cosmos 724 4.5 17:13:39 10° NW 17:19:28 77° SW 17:25:16 10° SSE
STARLINK-1007 2.9 17:16:15 10° WSW 17:19:30 86° NNW 17:21:53 17° ENE
Meteor 1-27 Rocket 4.0 17:14:15 10° NNW 17:19:47 73° W 17:25:23 10° S
STARLINK-80 3.8 17:16:10 10° WNW 17:19:55 53° N 17:22:42 17° ENE
STARLINK-55 3.4 17:16:45 10° W 17:19:59 55° N 17:22:22 17° ENE
STARLINK-66 3.4 17:16:48 10° W 17:20:02 56° N 17:22:25 17° ENE
CZ-2C R/B 4.0 17:15:09 10° ESE 17:20:12 32° ENE 17:25:08 10° N
Cosmos 2227 Rocket 3.8 17:17:37 10° N 17:21:17 17° NNE 17:24:01 13° ENE
Cosmos 405 3.9 17:18:18 10° N 17:21:27 29° ENE 17:24:26 11° SE
STARLINK-28 3.4 17:18:25 10° W 17:21:39 54° N 17:23:56 17° ENE
STARLINK-58 3.4 17:18:24 10° W 17:21:57 68° NNW 17:24:35 17° ENE
COSMOS 2487 2.8 17:19:15 10° N 17:22:34 42° ENE 17:25:52 10° SE
STARLINK-1011 4.0 17:19:35 10° SW 17:23:34 47° SSE 17:26:23 18° E
STARLINK-62 3.4 17:20:06 10° W 17:23:38 66° NNW 17:26:13 17° ENE
Lacrosse 5 rocket 2.7 17:20:52 10° WNW 17:24:59 34° N 17:28:21 15° ENE
STARLINK-34 3.4 17:21:44 10° W 17:25:15 65° NNW 17:27:46 18° ENE
Okean 1 4.1 17:21:53 10° N 17:25:27 30° ENE 17:28:52 11° SE
STARLINK-1036 3.9 17:24:32 10° SW 17:28:33 50° SSE 17:31:11 20° E
STARLINK-42 3.4 17:25:33 10° W 17:28:44 55° N 17:30:45 20° ENE
Cosmos 1340 2.5 17:26:18 10° S 17:30:03 69° E 17:33:49 10° NNE
Gbstr 26 Del rocket 4.3 17:26:59 10° S 17:30:15 22° SE 17:31:54 18° ESE
Cosmos 1898 Rocket 3.8 17:26:54 10° NNW 17:31:54 46° ENE 17:36:39 11° SE
Cosmos 2233 Rocket 4.0 17:25:47 10° S 17:31:56 88° W 17:38:12 10° N
Cosmos 44 4.1 17:28:11 10° NW 17:32:24 47° WSW 17:36:46 10° SSE
NOSS 2-3 (E) 3.7 17:28:45 10° SSW 17:33:03 63° SE 17:38:14 10° NE
STARLINK-1044 3.8 17:29:28 10° SW 17:33:30 53° SSE 17:35:57 22° E
STARLINK-1010 3.0 17:30:54 10° WSW 17:34:10 74° NNW 17:36:00 24° ENE
HJ-1C 3.2 17:31:11 10° SSE 17:34:27 66° ENE 17:37:45 10° N
STARLINK-1031 3.7 17:31:00 10° SW 17:34:59 59° SSE 17:37:23 23° ENE
STARLINK 1040 2.9 17:32:27 10° W 17:35:14 61° NNW 17:36:32 27° ENE
Lacrosse 4 Rocket 3.6 17:32:09 10° W 17:35:42 25° NW 17:39:21 10° NNE
USA 234 3.8 17:34:34 15° ENE 17:39:43 49° N 17:45:57 10° WNW
Cosmos 1939 Rocket 3.7 17:36:16 10° S 17:40:20 55° W 17:44:26 10° NNW
STARLINK-24 3.7 17:37:30 10° W 17:41:31 68° NNW 17:43:53 23° ENE
STARLINK-1029 2.9 17:39:11 10° WSW 17:42:21 78° NNW 17:43:45 30° ENE
SJ-11-01 4.2 17:38:02 10° SSE 17:42:39 65° ENE 17:47:18 10° N
STARLINK-1037 3.7 17:39:17 10° SW 17:43:22 61° SSE 17:45:27 27° E
CZ-4 R/B 3.4 17:41:42 10° SSW 17:45:30 33° W 17:49:17 10° NNW
Cosmos 2219 4.2 17:40:52 10° NNW 17:45:49 29° NE 17:48:01 22° E
Cosmos 1656 Rocket 3.7 17:41:08 10° S 17:46:32 60° ESE 17:52:04 10° NE
Meteor 1-19 Rocket 4.4 17:40:56 10° N 17:46:38 50° ENE 17:52:07 10° SSE
Meteor 2-4 Rocket 4.4 17:41:21 10° N 17:46:44 35° ENE 17:50:04 20° ESE
Cosmos 1763 Rocket 4.2 17:43:04 10° SSE 17:47:32 30° E 17:52:04 10° NE
NOSS 2-3 (D) 3.6 17:43:42 10° SW 17:48:04 76° SE 17:52:47 13° NE
STARLINK-1059 3.6 17:44:18 10° SW 17:48:24 65° SSE 17:50:18 30° E
STARLINK-1016 3.2 17:46:17 10° W 17:49:33 65° NNW 17:50:49 33° NE
STARLINK-1008 3.2 17:46:40 10° W 17:49:58 64° NNW 17:51:15 33° NE
USA 229 DEB 4.0 17:43:53 10° WSW 17:50:27 65° NW 17:57:25 10° NE
USA 229 4.0 17:43:59 10° WSW 17:50:33 65° NW 17:57:30 10° NE
Cosmos 1470 Rocket 3.8 17:46:23 10° SSW 17:50:43 72° W 17:55:09 10° N
STARLINK-81 3.7 17:47:10 10° W 17:51:10 66° NNW 17:53:09 28° ENE
STARLINK-54 3.8 17:49:03 10° W 17:53:03 63° NNW 17:54:56 29° ENE
Cosmos 1072 Rocket 4.5 17:47:00 10° S 17:53:15 62° E 17:59:29 10° NNE
STARLINK-1025 3.3 17:50:01 10° W 17:53:18 63° NNW 17:54:25 36° NE
STARLINK-1057 3.6 17:49:16 10° SW 17:53:23 68° SSE 17:55:07 33° E
STARLINK-75 3.6 17:50:54 10° W 17:54:14 50° N 17:55:21 34° NE
STARLINK-77 3.8 17:50:30 10° W 17:54:30 64° NNW 17:56:20 30° ENE
COSMO-SKYMED 1 4.4 17:50:51 10° N 17:54:45 33° WNW 17:58:38 10° SW
Meteor 1-25 Rocket 4.1 17:49:17 10° S 17:54:54 67° E 18:00:29 10° NNE
STARLINK-1017 3.3 17:51:41 10° W 17:54:59 62° NNW 17:56:01 37° NE
STARLINK-22 3.6 17:51:54 10° W 17:55:12 52° N 17:56:16 35° NE
Cosmos 2242 Rocket 4.0 17:51:03 10° NNW 17:55:35 68° W 18:00:07 10° S
STARLINK-25 3.8 17:52:09 10° W 17:56:10 64° NNW 17:57:56 31° ENE
STARLINK-41 3.6 17:53:22 10° W 17:56:40 51° N 17:57:41 36° NE
NOSS 3-1 (A) 3.5 17:51:48 10° SW 17:57:27 78° NW 18:04:09 10° NE
STARLINK-71 3.8 17:54:04 10° W 17:58:03 62° N 17:59:44 32° ENE
STARLINK-1034 3.5 17:54:13 10° WSW 17:58:21 72° SSE 17:59:52 37° ENE
Meteor 1-22 4.5 17:53:33 10° S 17:58:52 77° E 18:04:15 10° NNE
STARLINK-79 3.8 17:55:28 10° W 17:59:28 63° NNW 18:01:06 33° ENE
STARLINK-1048 3.3 17:56:45 10° W 18:00:02 60° NNW 18:00:54 42° NE
Resurs 01 Rocket 2.9 18:01:18 23° NE 18:01:18 23° NE 18:04:15 10° N
STARLINK-78 3.8 17:57:09 10° W 18:01:09 62° N 18:02:43 34° ENE
STARLINK-1049 3.3 17:58:27 10° W 18:01:45 59° NNW 18:02:33 43° NE
STARLINK-57 3.8 17:58:56 10° W 18:02:56 61° N 18:04:24 35° NE
CENTAUR R/B 3.8 17:56:23 10° NW 18:03:15 37° NNE 18:07:34 23° ENE
STARLINK-1068 3.5 17:59:10 10° WSW 18:03:18 76° SSE 18:04:39 41° ENE
STARLINK-1051 3.4 18:00:13 10° W 18:03:31 58° NNW 18:04:14 45° NE
STARLINK-1028 3.4 18:00:36 10° W 18:03:54 58° NNW 18:04:37 45° NE
STARLINK-64 3.7 18:00:26 10° W 18:03:58 53° N 18:04:55 39° NE
Cosmos 1513 Rocket 4.4 17:58:15 10° S 18:04:17 68° E 18:10:26 10° NNE
STARLINK-49 3.8 18:00:28 10° W 18:04:28 61° N 18:05:52 36° NE
Cosmos 2263 Rocket 4.5 18:04:13 10° NNE 18:04:38 10° NNE 18:05:03 10° NNE
Ariane Rocket 3.1 17:59:52 10° SSE 18:04:58 80° WSW 18:10:07 10° NNW
Cosmos 2369 Rocket 2.9 17:59:50 10° SW 18:05:24 56° NW 18:11:03 10° NNE
STARLINK-1021 3.4 18:02:23 10° W 18:05:40 57° NNW 18:06:19 46° NE
STARLINK-26 3.5 18:02:35 10° WNW 18:06:00 53° N 18:06:33 46° NE
STARLINK-27 3.8 18:02:07 10° W 18:06:07 61° N 18:07:28 37° NE
Cosmos 1602 3.7 18:02:44 10° S 18:06:32 54° E 18:10:20 10° NNE
STARLINK-1019 3.4 18:04:09 10° W 18:07:27 57° NNW 18:08:02 48° NNE
STARLINK-74 3.8 18:03:47 10° W 18:07:47 60° N 18:09:03 39° NE
OPS 8737 4.4 18:04:26 10° SSW 18:08:21 58° SE 18:08:29 58° ESE
Okean 1-7 2.9 18:04:24 10° N 18:08:44 88° W 18:13:05 10° S
SL-08 RB Rocket 3.8 18:07:50 37° ESE 18:09:06 49° ENE 18:13:26 10° N
IRS-1A Rocket 4.3 18:03:40 10° SSE 18:09:11 80° WSW 18:14:44 10° NNW
STARLINK-1012 3.4 18:05:57 10° W 18:09:15 56° N 18:09:46 49° NNE
Lacrosse 5 3.1 18:05:17 10° S 18:08:21 23° SE 18:08:21 23° SE
STARLINK-39 3.8 18:05:27 10° W 18:09:26 60° N 18:10:38 40° NE
MetOp-A 4.4 18:08:49 33° ESE 18:10:38 45° ENE 18:15:44 10° N
STARLINK-31 3.8 18:07:07 10° W 18:11:07 59° N 18:12:14 41° NE
SL-24 DEB 4.2 18:08:37 20° SSE 18:11:48 57° E 18:16:22 10° N
SJ-6B 2.6 18:11:06 50° SE 18:11:52 65° ENE 18:15:38 10° N
Cosmos 1703 Rocket 3.8 18:07:49 10° NNW 18:12:17 72° W 18:16:44 10° S
STARLINK-1026 3.4 18:09:33 10° W 18:12:50 55° N 18:13:12 51° NNE
STARLINK-69 3.9 18:08:58 10° W 18:12:57 58° N 18:14:00 42° NE
ARGOS Delta rocket 3.7 18:11:44 39° SE 18:13:05 56° ENE 18:17:28 10° N
STARLINK-1014 3.4 18:09:46 10° W 18:13:14 61° NNW 18:13:43 53° NNE
STARLINK-1060 3.5 18:09:06 10° WSW 18:13:15 84° SSE 18:14:13 52° ENE
STARLINK-21 3.9 18:10:28 10° W 18:14:27 58° N 18:15:26 44° NE
STARLINK-1013 3.4 18:11:22 10° W 18:14:40 55° N 18:14:58 52° NNE
ATLAS 3B R/B 3.8 18:09:17 10° NW 18:15:00 29° NNE 18:17:53 21° NE
Cosmos 1891 Rocket 4.4 18:09:08 10° S 18:15:19 82° E 18:21:42 10° N
Cosmos 990 Rocket 3.9 18:11:04 10° NNW 18:16:15 84° WSW 18:20:03 18° SSE
STARLINK-45 3.9 18:12:20 10° W 18:16:19 57° N 18:17:13 45° NE
STARLINK-1009 3.4 18:13:10 10° W 18:16:28 54° N 18:16:42 53° N
Cosmos 192 4.3 18:12:52 10° S 18:17:41 60° ESE 18:21:53 14° NNE
STARLINK-70 3.9 18:13:56 10° W 18:17:54 57° N 18:18:45 46° NE
STARLINK-1030 3.5 18:14:07 10° WSW 18:18:16 88° SSE 18:19:02 58° ENE
STARLINK-1015 3.4 18:15:01 10° W 18:18:18 54° N 18:18:28 53° N
STARLINK-76 3.9 18:15:27 10° W 18:19:26 57° N 18:20:13 47° NE
STARLINK-23 3.9 18:17:06 10° W 18:21:06 57° N 18:21:48 49° NE
SJ 16-02 1.4 18:17:13 10° NNW 18:21:39 78° WSW 18:23:52 29° SSE
NOSS 2-3 (C) 4.2 18:17:52 10° WSW 18:22:19 63° NW 18:26:14 18° NE
STARLINK-32 3.9 18:18:47 10° W 18:22:46 57° N 18:23:24 50° NNE
FREGAT/IRIS 3.6 18:23:34 40° NW 18:23:34 40° NW 18:25:38 10° NNW
Cosmos 1869 Rocket 3.4 18:18:44 10° S 18:23:06 71° E 18:27:29 10° NNE
STARLINK-1020 3.5 18:19:04 10° WSW 18:23:13 88° NNW 18:23:47 65° ENE
Orbus 7S? 4.3 18:18:00 10° W 18:23:56 43° NNW 18:25:07 32° NNE
H-2A R/B 2.2 18:18:47 10° SSE 18:24:11 80° WSW 18:29:41 10° NNW
STARLINK-40 3.8 18:20:26 10° W 18:24:24 57° N 18:24:58 51° NNE
ARGOS 3.1 18:20:12 11° SSE 18:25:31 89° WSW 18:31:00 10° NNW
STARLINK-1047 3.5 18:21:29 10° WSW 18:25:39 86° NNW 18:26:11 67° ENE
Cosmos 1937 Rocket 3.4 18:20:38 10° NNW 18:25:57 88° ENE 18:28:21 33° SSE
STARLINK-44 3.8 18:22:06 10° W 18:26:05 56° N 18:26:35 52° NNE
STARLINK-37 3.8 18:23:53 10° W 18:27:51 56° N 18:28:16 53° NNE
STARLINK-48 3.5 18:24:05 10° WNW 18:27:57 64° NNE 18:28:00 64° NNE
STARLINK-1052 3.5 18:24:04 10° WSW 18:28:13 85° NNW 18:28:35 73° NE
STARLINK-61 3.8 18:24:47 10° WNW 18:28:38 54° N 18:28:50 53° NNE
STARLINK-36 3.8 18:25:25 10° W 18:29:24 56° N 18:29:45 53° NNE
STARLINK-68 3.9 18:27:17 10° W 18:31:16 55° N 18:31:32 54° NNE
Cosmos 489 Rocket 4.4 18:26:15 10° SSW 18:32:35 84° ESE 18:38:57 10° NNE
STARLINK-63 3.9 18:28:51 10° W 18:32:49 55° N 18:33:01 54° N
STARLINK-35 3.9 18:30:24 10° W 18:34:22 55° N 18:34:31 55° N
STARLINK-51 3.9 18:32:04 10° W 18:36:03 55° N 18:36:06 55° N
USA 186 4.2 18:38:08 15° NNW 18:38:08 15° NNW 18:38:45 10° NNW
STARLINK-43 3.7 18:33:20 10° WNW 18:36:38 58° WSW 18:36:38 58° WSW
STARLINK-1023 4.3 18:34:18 10° W 18:36:38 37° NW 18:36:38 37° NW
STARLINK-30 3.9 18:33:44 10° W 18:37:42 55° N 18:37:42 55° N
Nadezhda 4 Rocket 4.0 18:31:41 10° N 18:38:00 84° W 18:44:20 10° S
STARLINK-1033 3.6 18:34:01 10° WSW 18:38:08 79° NNW 18:38:08 79° NNW
STARLINK-72 4.0 18:35:23 10° W 18:39:17 55° N 18:39:17 55° N
Cosmos 1464 Rocket 4.3 18:34:39 10° SSW 18:41:00 70° WNW 18:47:24 10° N
STARLINK-50 4.0 18:37:02 10° W 18:40:51 54° NNW 18:40:51 54° NNW
USA 238 DEB 3.9 18:34:09 10° NW 18:41:14 62° NE 18:43:16 46° E
USA 238 3.9 18:34:15 10° NW 18:41:19 62° NE 18:43:20 46° E
Cosmos 44 Rocket 3.6 18:37:09 10° NW 18:41:50 61° SW 18:42:58 46° S
STARLINK-59 4.0 18:38:49 10° W 18:42:34 54° NNW 18:42:34 54° NNW
STARLINK-56 4.1 18:40:21 10° W 18:44:02 53° NNW 18:44:02 53° NNW
Cosmos 2026 Rocket 4.0 18:38:28 10° N 18:44:35 55° ENE 18:44:59 54° E
STARLINK-1035 3.8 18:41:08 10° W 18:45:13 71° NW 18:45:13 71° NW
STARLINK-73 4.1 18:42:02 10° W 18:45:39 52° NNW 18:45:39 52° NNW
STARLINK-38 4.2 18:43:43 10° W 18:47:15 51° NNW 18:47:15 51° NNW
Cosmos 2297 Rocket 2.4 18:42:24 10° NNW 18:47:51 50° NE 18:47:51 50° NE
STARLINK-1024 3.9 18:44:01 10° WSW 18:47:44 65° WNW 18:47:44 65° WNW
STARLINK-65 4.2 18:45:21 10° W 18:48:49 50° NNW 18:48:49 50° NNW
STARLINK-53 4.3 18:47:05 10° WNW 18:50:28 49° NNW 18:50:28 49° NNW
STARLINK-1027 4.2 18:51:49 10° W 18:55:29 58° WNW 18:55:29 58° WNW
Cosmos 2221 Rocket 3.8 18:52:32 10° NNW 18:56:58 71° W 18:56:58 71° W
STARLINK-1032 4.3 18:53:59 10° W 18:57:17 52° WNW 18:57:17 52° WNW
CZ-2C R/B 4.0 18:54:10 10° S 18:59:50 52° W 19:05:23 10° NNW
Cosmos 372 Rocket 4.0 18:54:42 10° NNW 18:59:33 71° NNE 18:59:33 71° NNE
Cosmos 1943 Rocket 4.3 18:55:39 10° W 19:00:02 23° NW 19:04:26 10° NNE
Cosmos 2034 Rocket 4.2 18:55:25 10° SSW 19:01:32 67° WNW 19:07:42 10° N
Cosmos 468 Rocket 4.4 18:58:20 10° SW 19:03:34 62° WNW 19:08:52 10° NNE
Lacrosse 5 rocket 2.4 19:00:24 10° NW 19:04:00 45° NNW 19:04:00 45° NNW
Cosmos 2227 Rocket 2.4 19:00:57 10° NNW 19:05:52 56° NNE 19:05:52 56° NNE
SPOT 3 Rocket 4.1 19:05:25 37° SSW 19:07:16 56° W 19:12:25 10° NNW
Okean 3 4.5 19:04:18 10° NNW 19:07:23 43° NW 19:07:23 43° NW
Cosmos 2298 Rocket 4.1 19:03:30 10° NNW 19:08:19 72° N 19:08:19 72° N
Gbstr 26 Del rocket 4.5 19:12:06 10° WSW 19:14:28 33° WSW 19:14:28 33° WSW
Cosmos 1428 Rocket 4.4 19:16:06 10° N 19:21:52 80° N 19:21:52 80° N
USA 234 3.2 19:21:54 68° NE 19:22:18 69° NNE 19:28:48 10° WNW
Cosmos 1092 Rocket 4.3 19:16:18 10° NNW 19:22:34 63° W 19:24:43 41° SSW
Terra 4.4 19:26:53 11° N 19:26:53 11° N 19:27:13 10° N
Cosmos 2150 Rocket 4.5 19:21:30 10° NNW 19:25:58 60° NW 19:25:58 60° NW
Cosmos 1634 Rocket 4.2 19:29:13 64° N 19:29:13 64° N 19:34:30 10° N
Cosmos 1763 Rocket 4.4 19:24:05 10° SW 19:29:08 47° WNW 19:34:17 10° NNE
Cosmos 2219 3.5 19:24:45 10° NNW 19:29:58 65° W 19:29:58 65° W
NOSS 3-2 (A) 3.9 19:25:58 10° NW 19:33:22 86° SW 19:34:00 78° SSE
NOSS 3-2 (C) 3.9 19:27:50 10° NW 19:35:10 76° NE 19:35:19 76° NE
Resurs 01 Rocket 3.4 19:38:52 29° NW 19:38:52 29° NW 19:41:16 10° NNW
Cosmos 2263 Rocket 4.1 19:46:03 10° NNW 19:48:31 20° N 19:48:31 20° N
Lacrosse 5 4.2 19:46:44 10° WSW 19:47:37 15° WSW 19:47:37 15° WSW
CENTAUR R/B 3.1 19:47:14 10° NW 19:54:46 78° NNE 19:54:46 78° NNE
CZ-2C R/B 4.4 19:50:28 10° N 19:52:39 24° N 19:52:39 24° N
ATLAS 3B R/B 3.3 20:00:14 10° NW 20:05:09 48° NNW 20:05:09 48° NNW
Cosmos 2297 Rocket 4.1 20:26:47 10° NW 20:29:41 25° WNW 20:29:41 25° WNW
Cosmos 2227 Rocket 4.5 20:45:37 10° NW 20:47:42 19° WNW 20:47:42 19° WNW
